Regional Weather Roundup
Issued by NWS Sioux Falls, SD

Home | Current Version | Previous Version | Graphics & Text | Print | Product List | Glossary On
Versions: 1 2 3 4 5 6 7 8 9 10 11 12 13 14 15 16 17 18 19 20 21 22 23 24 25 26 27 28 29 30 31 32 33 34 35 36 37 38 39 40 41 42 43 44 45 46 47 48 49 50
000
ASUS43 KFSD 231810
RWRFSD

WEATHER ROUNDUP FOR SE SOUTH DAKOTA/SW MINNESOTA/NW IOWA
NATIONAL WEATHER SERVICE SIOUX FALLS SD
100 PM CDT SAT SEP 23 2017

NOTE: "FAIR" INDICATES FEW OR NO CLOUDS BELOW 12,000 FEET WITH NO
SIGNIFICANT WEATHER AND OR OBSTRUCTIONS TO VISIBILITY.


SDZ038>040-050-052>070-231900-
SOUTHEAST SOUTH DAKOTA

CITY           SKY/WX    TMP DP  RH WIND       PRES   REMARKS
BROOKINGS      CLOUDY    60  57  89 N13       30.00S
CHAMBERLAIN    CLOUDY    55  55 100 N12       29.99F
6HR MIN TEMP:  53; 6HR MAX TEMP:  55; 6HR PCP:  0.05;

HURON          CLOUDY    56  54  93 NW13      29.99R
6HR MIN TEMP:  53; 6HR MAX TEMP:  57; 6HR PCP:  0.10;

MADISON        FOG       63  63 100 NW14G22   29.99S VSB 1
MITCHELL       LGT RAIN  58  57  97 N7        29.96F
6HR MIN TEMP:  56; 6HR MAX TEMP:  57; 6HR PCP:  0.14;

SIOUX FALLS    CLOUDY    73  67  81 SE8       29.95F
6HR MIN TEMP:  62; 6HR MAX TEMP:  73;

WINNER         LGT RAIN  53  51  93 N10       30.00S FOG
YANKTON        CLOUDY    65  59  81 N7        29.96F
$$

MNZ071-072-080-081-089-090-097-098-231900-
SOUTHWEST MINNESOTA

CITY           SKY/WX    TMP DP  RH WIND       PRES   REMARKS
FAIRMONT       MOSUNNY   85  70  60 S13       29.97
JACKSON        MOSUNNY   82  68  61 CALM      29.98S
LUVERNE        CLOUDY    73  63  68 CALM      29.97F
MARSHALL       CLOUDY    66  58  75 N14       29.99R
6HR MIN TEMP:  58; 6HR MAX TEMP:  68;

MONTEVIDEO     CLOUDY    63  61  94 N8        30.02R
PIPESTONE      MOSUNNY   73  66  78 S6        29.97F
REDWOOD FALLS  CLOUDY    78  66  66 S6        29.96S
TRACY          CLOUDY    74  67  79 CALM      29.98S
WORTHINGTON    CLOUDY    79  69  71 SW7       29.98S
$$

IAZ001>003-012>014-020>022-031-032-NEZ013-014-SDZ071-231900-
NORTHWEST IOWA

CITY           SKY/WX    TMP DP  RH WIND       PRES   REMARKS
CHEROKEE       MOSUNNY   84  70  63 S9G16     29.95F
DENISON        SUNNY     86  68  54 S8G16     29.98F
ESTHERVILLE    SUNNY     84  70  62 S12       29.97F
LE MARS        MOSUNNY   84  70  61 S12       29.93F
ORANGE CITY    MOSUNNY   82  72  69 SW9       29.95S
SHELDON        PTSUNNY   82  70  65 MISG      29.93F
SIOUX CITY     MOSUNNY   84  71  65 S13       29.92F
6HR MIN TEMP:  62; 6HR MAX TEMP:  85;

SPENCER        MOSUNNY   86  69  56 S10G21    29.96F
6HR MIN TEMP:  69; 6HR MAX TEMP:  86;

STORM LAKE     MOSUNNY   86  68  54 S13G18    29.97F
$$

ABBREVIATIONS USED IN REMARKS
   TC - TEMPERATURE IN CELSIUS
  WCI - WIND CHILL INDEX
   HX - HEAT INDEX
  VSB - VISIBILITY





USA.gov is the U.S. government's official web portal to all federal, state and local government web resources and services.